This demonstration page uses our WeatherBlox Daily Observations layout. Learn more.

41.55636, -103.73856

Hourly Observations for January 27, 2020

Temp ( °F °C ) Dew Point ( °F °C ) Humidity (%) Winds ( mph kmh ) Pressure ( in mb ) Visibility ( mi km ) Precip ( " mm )
12:58 am 00:58 Clear 38 3.6 21 -6 50 50 Calm 30.06 1018 10 16.0934 0 0
1:58 am 01:58 Clear 38 3.5 22 -5.8 51 51 Calm 30.05 1018 10 16.0934 0 0
2:58 am 02:58 Mostly Cloudy 31 -0.8 21 -6.1 68 68 SSW 6 9 30.09 1019 10 16.0934 0 0
3:58 am 03:58 Clear 33 0.6 22 -5.5 64 64 S 3 6 30.05 1018 10 16.0934 0 0
4:58 am 04:58 Mostly Clear 31 -0.7 22 -5.7 69 69 Calm 30.04 1017 10 16.0934 0 0
5:58 am 05:58 Mostly Cloudy 28 -2.2 21 -6 75 75 Calm 30.04 1017 10 16.0934 0 0
6:58 am 06:58 Mostly Cloudy 32 -0.2 22 -5.8 66 66 SSE 3 6 30 1016 10 16.0934 0 0
7:58 am 07:58 Mostly Cloudy 32 0 25 -4.1 74 74 SSE 6 9 29.98 1015 10 16.0934 0 0
8:58 am 08:58 Mostly Cloudy 32 0 25 -3.7 76 76 ESE 7 11 29.98 1015 10 16.0934 0 0
9:58 am 09:58 Partly Cloudy 29 -1.8 23 -5.1 78 78 E 8 13 29.98 1015 10 16.0934 0 0
10:58 am 10:58 Mostly Cloudy 27 -2.6 22 -5.6 80 80 ESE 8 13 29.98 1015 10 16.0934 0 0
11:58 am 11:58 Cloudy 27 -2.7 23 -5 84 84 E 8 13 30.01 1016 10 16.0934 0 0
12:58 pm 12:58 Cloudy 28 -2.3 24 -4.7 84 84 ESE 7 11 30.01 1016 10 16.0934 0 0
1:58 pm 13:58 Cloudy 27 -2.6 24 -4.7 86 86 E 10 17 30.03 1017 10 16.0934 0 0
2:58 pm 14:58 Cloudy 30 -1.2 25 -3.9 82 82 E 6 9 30.04 1017 10 16.0934 0 0
3:58 pm 15:58 Cloudy with Light Snow 29 -1.4 26 -3.6 85 85 ESE 3 6 30.03 1017 10 16.0934 0 0
4:58 pm 16:58 Mostly Cloudy 36 2 26 -3.4 68 68 Calm 30.04 1017 10 16.0934 0 0
5:58 pm 17:58 Cloudy 39 3.7 24 -4.3 56 56 SW 7 11 30.03 1017 10 16.0934 0 0
7:58 pm 19:58 Cloudy 39 3.8 24 -4.6 55 55 SSW 9 15 29.98 1015 10 16.0934 0 0
8:58 pm 20:58 Mostly Cloudy 39 4 24 -4.5 54 54 Calm 29.98 1015 10 16.0934 0 0
9:58 pm 21:58 Cloudy with Light Rain 38 3.3 28 -2.3 67 67 WSW 5 7 30 1016 7 11.26538 0 0
10:58 pm 22:58 Mostly Cloudy 36 2.1 31 -0.3 84 84 S 12 19 30.01 1016 10 16.0934 0 0
11:58 pm 23:58 Mostly Cloudy 35 1.9 31 -0.4 85 85 SSW 13 20 30.02 1017 10 16.0934 0 0

Powered by AerisWeather